星链-34905 (STARLINK-34905)

导读 | 豆包AI

STARLINK-34905是美国SpaceX公司星链星座中的一颗低轨通信卫星,于2025年8月14日发射入轨。它属于全球覆盖的宽带互联网卫星星座,采用平板设计,搭载Ku/Ka波段通信载荷与氪工质霍尔推进器,具备自主避撞能力,使用寿命约5-7年,退役后将主动离轨在大气层烧毁,旨在为全球提供高速宽带互联网服务。

基本信息
目录编号:
65202
目录名称:
STARLINK-34905
国际标识:
2025-176E
轨道中心:
EARTH
卫星名称:
星链-34905
卫星全名:
星链-34905 (STARLINK-34905)
卫星状态:
在轨 (已飞行258 天)
发射日期:
2025-08-14 UTC
国别 :
美国 (US)
星等 :
--
轨道信息
数据来源 国际轨道数据
星历时间: 2026-04-29T12:00:02+0800
5小时前
查看轨道信息
半长轴: 6840.882km
偏心率: 0.0001286
轨道倾角: 53.157°
近地点辐角 95.496°
升交点赤经 278.318°
平近点角 62.149°
近地点: 461.865km
远地点: 463.625km
周期: 93.849分钟
每日圈数: 15.343862
详细信息
固有亮度:
5
最大亮度:
2.5
卫星平台:
Starlink V1.0
覆盖范围:
全球
运营商:
太空探索技术公司
运营商所在国:
美国
制造商(研发单位):
太空探索技术公司
制造商所在国:
美国
使用方式:
暂无
卫星简介
Starlink 计划是 SpaceX 推出的全球卫星互联网项目,通过发射低轨道卫星,为全球尤其是偏远地区提供高速、低延迟的互联网服务。自 2019 年起,Starlink 已部署数千颗卫星,旨在缩小全球数字鸿沟,推动互联网普及。该项目还为军事、航空等行业提供通信支持,带来广泛经济效益。
2D轨道图
3D轨道图
轨道高度分析图
轨道倾角分析图
轨道综合分析图
查看轨道综合分析图